[Date Prev][Date Next][Thread Prev][Thread Next] - [Date Index][Thread Index][Author Index]
2 Line ISS Keps 6-15
- Subject: [sarex] 2 Line ISS Keps 6-15
- From: "Dave Larsen PhD" <doc@xxxxxxxxxxx>
- Date: Sat, 15 Jun 2002 04:19:10 -0700
ISS
1 25544U 98067A 02166.25000000 .00022749 00000-0 30765-3 0 5637
2 25544 51.6332 62.6174 0006804 238.6710 31.2451 15.57611327203721
----
Via the sarex mailing list at AMSAT.ORG courtesy of AMSAT-NA.
To unsubscribe, send "unsubscribe sarex" to Majordomo@amsat.org
AMSAT Home